�������l�o���
Date,Time,MP-1(��Sv/h),MP-2(��Sv/h),MP-3(��Sv/h),MP-4(��Sv/h),MP-5(��Sv/h),MP-6(��Sv/h),MP-7(��Sv/h),MP-8(��Sv/h),����,����(m/s),���J
2021/09/15,00:00,0.602,0.901,0.567,1.093,0.774,0.365,0.629,0.592,�k��,3.6,�L
2021/09/15,00:10,0.602,0.899,0.566,1.093,0.773,0.365,0.629,0.589,�k��,3.5,��
2021/09/15,00:20,0.602,0.901,0.567,1.091,0.774,0.365,0.629,0.590,�k�k��,2.5,��
2021/09/15,00:30,0.603,0.893,0.566,1.092,0.773,0.364,0.631,0.590,�k��,2.5,��
2021/09/15,00:40,0.602,0.861,0.566,1.092,0.774,0.365,0.629,0.589,�k��,2.3,��
2021/09/15,00:50,0.604,0.871,0.568,1.091,0.776,0.364,0.629,0.590,�k��,2.9,��
2021/09/15,01:00,0.603,0.903,0.566,1.093,0.774,0.365,0.629,0.590,�k��,2.6,�L
2021/09/15,01:10,0.602,0.901,0.567,1.093,0.773,0.364,0.628,0.589,�k��,2.3,�L
2021/09/15,01:20,0.603,0.898,0.566,1.091,0.773,0.365,0.630,0.591,�k��,1.5,�L
2021/09/15,01:30,0.603,0.898,0.567,1.093,0.774,0.366,0.630,0.589,�k,1.5,�L
2021/09/15,01:40,0.603,0.898,0.566,1.092,0.775,0.366,0.629,0.591,�k�k��,2.0,��
2021/09/15,01:50,0.599,0.896,0.566,1.092,0.773,0.364,0.630,0.589,�k��,3.1,��
2021/09/15,02:00,0.601,0.899,0.567,1.095,0.773,0.364,0.629,0.590,�k��,3.4,��
2021/09/15,02:10,0.602,0.898,0.567,1.093,0.772,0.365,0.629,0.590,�k��,3.4,��
2021/09/15,02:20,0.599,0.897,0.567,1.095,0.773,0.366,0.631,0.591,�k��,2.6,��
2021/09/15,02:30,0.602,0.899,0.567,1.090,0.774,0.364,0.629,0.589,�k�k��,2.2,��
2021/09/15,02:40,0.600,0.899,0.567,1.093,0.772,0.365,0.629,0.590,�k��,3.3,��
2021/09/15,02:50,0.600,0.898,0.567,1.091,0.774,0.364,0.630,0.589,�k�k��,2.8,��
2021/09/15,03:00,0.600,0.897,0.567,1.091,0.772,0.366,0.631,0.592,�k��,2.6,��
2021/09/15,03:10,0.601,0.896,0.566,1.093,0.774,0.366,0.630,0.590,�k��,2.3,��
2021/09/15,03:20,0.599,0.899,0.568,1.093,0.773,0.364,0.630,0.591,�k��,3.3,��
2021/09/15,03:30,0.600,0.897,0.566,1.091,0.772,0.366,0.628,0.589,�k�k��,3.7,��
2021/09/15,03:40,0.601,0.899,0.566,1.091,0.773,0.365,0.630,0.588,�k�k��,3.8,��
2021/09/15,03:50,0.601,0.898,0.566,1.091,0.772,0.365,0.630,0.590,�k�k��,4.2,��
2021/09/15,04:00,0.601,0.897,0.566,1.092,0.773,0.365,0.631,0.590,�k�k��,4.8,�L
2021/09/15,04:10,0.601,0.897,0.566,1.092,0.771,0.366,0.631,0.589,�k�k��,4.4,��
2021/09/15,04:20,0.602,0.895,0.566,1.092,0.774,0.365,0.630,0.591,�k�k��,4.5,�L
2021/09/15,04:30,0.602,0.897,0.567,1.092,0.770,0.364,0.630,0.590,�k�k��,5.2,��
2021/09/15,04:40,0.604,0.897,0.566,1.094,0.775,0.366,0.631,0.589,�k�k��,4.7,��
2021/09/15,04:50,0.600,0.899,0.565,1.093,0.773,0.363,0.628,0.591,�k�k��,5.1,��
2021/09/15,05:00,0.601,0.896,0.566,1.092,0.771,0.364,0.629,0.589,�k�k��,5.5,��
2021/09/15,05:10,0.601,0.897,0.566,1.095,0.774,0.364,0.628,0.590,�k�k��,5.5,��
2021/09/15,05:20,0.600,0.895,0.567,1.091,0.771,0.364,0.630,0.591,�k�k��,5.4,��
2021/09/15,05:30,0.599,0.897,0.567,1.090,0.772,0.365,0.629,0.592,�k�k��,6.0,��
2021/09/15,05:40,0.600,0.897,0.566,1.090,0.773,0.364,0.627,0.590,�k�k��,5.9,��
2021/09/15,05:50,0.600,0.899,0.565,1.093,0.772,0.364,0.627,0.590,�k�k��,6.2,��
2021/09/15,06:00,0.600,0.898,0.565,1.093,0.774,0.363,0.628,0.591,�k�k��,6.7,�L
2021/09/15,06:10,0.600,0.898,0.566,1.093,0.773,0.363,0.629,0.589,�k�k��,7.5,�L
2021/09/15,06:20,0.600,0.896,0.566,1.092,0.772,0.365,0.629,0.591,�k�k��,6.6,��
2021/09/15,06:30,0.600,0.896,0.567,1.091,0.775,0.364,0.629,0.590,�k�k��,6.7,�L
2021/09/15,06:40,0.600,0.897,0.565,1.093,0.773,0.363,0.628,0.590,�k�k��,6.3,�L
2021/09/15,06:50,0.600,0.897,0.564,1.091,0.774,0.364,0.629,0.590,�k�k��,6.7,�L
2021/09/15,07:00,0.601,0.896,0.565,1.094,0.773,0.362,0.629,0.591,�k�k��,5.6,�L
2021/09/15,07:10,0.600,0.898,0.567,1.092,0.774,0.364,0.630,0.590,�k�k��,5.3,��
2021/09/15,07:20,0.600,0.895,0.567,1.092,0.774,0.363,0.629,0.590,�k�k��,5.2,��
2021/09/15,07:30,0.600,0.897,0.567,1.093,0.771,0.362,0.630,0.590,�k�k��,5.2,��
2021/09/15,07:40,0.600,0.898,0.565,1.092,0.771,0.362,0.629,0.590,�k�k��,4.6,��
2021/09/15,07:50,0.598,0.894,0.567,1.092,0.772,0.362,0.631,0.589,�k�k��,5.1,��
2021/09/15,08:00,0.599,0.895,0.565,1.092,0.771,0.362,0.629,0.588,�k,3.8,��
2021/09/15,08:10,0.597,0.894,0.563,1.091,0.769,0.363,0.630,0.588,�k�k��,5.0,��
2021/09/15,08:20,0.600,0.893,0.564,1.092,0.770,0.363,0.628,0.589,�k�k��,5.5,��
2021/09/15,08:30,0.599,0.893,0.564,1.092,0.771,0.363,0.629,0.588,�k�k��,6.1,��
2021/09/15,08:40,0.599,0.894,0.560,1.089,0.769,0.362,0.628,0.588,�k�k��,5.1,��
2021/09/15,08:50,0.598,0.890,0.565,1.091,0.771,0.363,0.629,0.588,�k�k��,6.4,��
2021/09/15,09:00,0.598,0.891,0.563,1.090,0.771,0.362,0.628,0.588,�k�k��,5.4,��
2021/09/15,09:10,0.598,0.891,0.563,1.091,0.770,0.362,0.630,0.590,�k�k��,5.9,��
2021/09/15,09:20,0.597,0.892,0.562,1.091,0.771,0.363,0.628,0.587,�k,5.3,��
2021/09/15,09:30,0.599,0.894,0.563,1.092,0.770,0.361,0.630,0.588,�k,5.1,��
2021/09/15,09:40,0.601,0.891,0.565,1.094,0.770,0.362,0.628,0.588,�k,5.3,��
2021/09/15,09:50,0.598,0.892,0.564,1.092,0.769,0.364,0.628,0.588,�k,6.5,��
2021/09/15,10:00,0.600,0.893,0.563,1.093,0.769,0.364,0.628,0.587,�k,6.7,��
2021/09/15,10:10,0.600,0.890,0.562,1.092,0.771,0.362,0.629,0.588,�k,6.0,��
2021/09/15,10:20,0.600,0.891,0.563,1.092,0.770,0.362,0.628,0.588,�k,5.2,��
2021/09/15,10:30,0.600,0.892,0.564,1.092,0.771,0.362,0.629,0.588,�k,6.0,��
2021/09/15,10:40,0.600,0.895,0.563,1.093,0.770,0.363,0.629,0.587,�k,4.5,��
2021/09/15,10:50,0.598,0.896,0.564,1.093,0.773,0.364,0.627,0.587,�k�k��,6.9,��
2021/09/15,11:00,0.599,0.892,0.562,1.090,0.770,0.363,0.630,0.588,�k�k��,6.4,��
2021/09/15,11:10,0.600,0.894,0.565,1.093,0.772,0.363,0.627,0.588,�k�k��,6.8,��
2021/09/15,11:20,0.600,0.895,0.564,1.092,0.772,0.363,0.628,0.587,�k�k��,5.8,��
2021/09/15,11:30,0.600,0.895,0.566,1.092,0.772,0.363,0.629,0.589,�k�k��,6.7,��
2021/09/15,11:40,0.599,0.896,0.564,1.094,0.770,0.364,0.628,0.588,�k�k��,6.8,��
2021/09/15,11:50,0.602,0.893,0.566,1.093,0.774,0.363,0.630,0.588,�k�k��,7.1,��
2021/09/15,12:00,0.602,0.895,0.565,1.093,0.774,0.363,0.631,0.590,�k�k��,6.1,��
2021/09/15,12:10,0.601,0.896,0.565,1.093,0.772,0.364,0.630,0.587,�k�k��,6.1,��
2021/09/15,12:20,0.602,0.892,0.567,1.092,0.772,0.363,0.629,0.588,�k�k��,7.1,��
2021/09/15,12:30,0.602,0.895,0.565,1.092,0.774,0.363,0.628,0.589,�k�k��,7.4,��
2021/09/15,12:40,0.602,0.893,0.565,1.093,0.773,0.365,0.630,0.589,�k�k��,6.5,��
2021/09/15,12:50,0.601,0.894,0.566,1.095,0.774,0.364,0.630,0.589,�k�k��,6.5,��
2021/09/15,13:00,0.602,0.894,0.565,1.092,0.777,0.364,0.629,0.588,�k�k��,7.3,��
2021/09/15,13:10,0.602,0.888,0.564,1.093,0.773,0.363,0.629,0.587,�k�k��,7.3,��
2021/09/15,13:20,0.603,0.893,0.565,1.091,0.774,0.362,0.630,0.588,�k�k��,7.1,��
2021/09/15,13:30,0.601,0.896,0.567,1.096,0.774,0.363,0.629,0.587,�k�k��,6.2,��
2021/09/15,13:40,0.604,0.897,0.566,1.094,0.774,0.365,0.629,0.587,�k�k��,5.8,��
2021/09/15,13:50,0.602,0.900,0.567,1.092,0.774,0.364,0.630,0.588,�k�k��,6.2,��
2021/09/15,14:00,0.602,0.899,0.565,1.093,0.774,0.363,0.629,0.589,�k�k��,5.8,��
2021/09/15,14:10,0.602,0.898,0.566,1.092,0.774,0.363,0.629,0.589,�k�k��,5.7,��
2021/09/15,14:20,0.603,0.898,0.566,1.093,0.776,0.364,0.629,0.586,�k�k��,5.3,��
2021/09/15,14:30,0.601,0.896,0.567,1.094,0.775,0.364,0.629,0.589,�k�k��,5.6,��
2021/09/15,14:40,0.603,0.899,0.566,1.095,0.777,0.364,0.629,0.588,�k�k��,6.0,��
2021/09/15,14:50,0.602,0.899,0.566,1.093,0.776,0.364,0.630,0.588,�k�k��,5.8,��
2021/09/15,15:00,0.602,0.898,0.567,1.095,0.774,0.362,0.630,0.589,�k�k��,5.1,��
2021/09/15,15:10,0.601,0.899,0.565,1.095,0.775,0.364,0.630,0.587,�k�k��,4.4,��
2021/09/15,15:20,0.601,0.901,0.566,1.095,0.775,0.362,0.630,0.589,�k�k��,4.4,��
2021/09/15,15:30,0.601,0.899,0.567,1.095,0.776,0.363,0.630,0.588,�k�k��,5.0,��
2021/09/15,15:40,0.602,0.900,0.565,1.095,0.774,0.362,0.629,0.588,�k�k��,5.4,��
2021/09/15,15:50,0.603,0.899,0.565,1.095,0.774,0.362,0.631,0.590,�k�k��,4.9,��
2021/09/15,16:00,0.604,0.901,0.566,1.092,0.777,0.363,0.631,0.589,�k�k��,5.0,��
2021/09/15,16:10,0.603,0.901,0.567,1.094,0.776,0.364,0.629,0.587,�k,5.4,��
2021/09/15,16:20,0.602,0.901,0.565,1.093,0.773,0.363,0.630,0.588,�k�k��,6.0,��
2021/09/15,16:30,0.601,0.902,0.566,1.093,0.774,0.362,0.628,0.588,�k�k��,5.3,��
2021/09/15,16:40,0.601,0.902,0.567,1.094,0.776,0.364,0.631,0.586,�k�k��,5.4,��
2021/09/15,16:50,0.601,0.901,0.565,1.092,0.777,0.364,0.629,0.587,�k,6.0,��
2021/09/15,17:00,0.601,0.902,0.567,1.092,0.774,0.365,0.629,0.588,�k,4.4,��
2021/09/15,17:10,0.602,0.902,0.567,1.091,0.774,0.365,0.629,0.589,�k,4.6,��
2021/09/15,17:20,0.603,0.901,0.565,1.093,0.774,0.364,0.629,0.589,�k,5.9,��
2021/09/15,17:30,0.601,0.904,0.566,1.093,0.775,0.365,0.629,0.589,�k,6.3,��
2021/09/15,17:40,0.602,0.906,0.566,1.093,0.775,0.365,0.631,0.591,�k,6.3,��
2021/09/15,17:50,0.602,0.906,0.567,1.094,0.775,0.365,0.630,0.590,�k,6.0,��
2021/09/15,18:00,0.602,0.907,0.568,1.095,0.778,0.366,0.630,0.589,�k,6.2,��
2021/09/15,18:10,0.602,0.906,0.567,1.096,0.778,0.364,0.631,0.590,�k,6.3,��
2021/09/15,18:20,0.601,0.907,0.568,1.097,0.777,0.364,0.630,0.591,�k,6.2,��
2021/09/15,18:30,0.602,0.904,0.568,1.097,0.777,0.366,0.630,0.590,�k,5.7,��
2021/09/15,18:40,0.600,0.904,0.568,1.094,0.779,0.364,0.631,0.590,�k�k��,6.1,��
2021/09/15,18:50,0.602,0.904,0.568,1.099,0.779,0.363,0.630,0.592,�k�k��,4.8,��
2021/09/15,19:00,0.604,0.904,0.567,1.097,0.777,0.365,0.630,0.590,�k�k��,5.4,��
2021/09/15,19:10,0.604,0.905,0.567,1.098,0.777,0.364,0.630,0.591,�k�k��,5.6,��
2021/09/15,19:20,0.604,0.904,0.568,1.097,0.779,0.363,0.629,0.591,�k�k��,6.4,��
2021/09/15,19:30,0.603,0.904,0.568,1.097,0.777,0.363,0.631,0.590,�k�k��,6.3,��
2021/09/15,19:40,0.603,0.905,0.568,1.098,0.778,0.364,0.632,0.592,�k�k��,6.8,��
2021/09/15,19:50,0.604,0.905,0.569,1.097,0.778,0.364,0.631,0.591,�k�k��,6.7,��
2021/09/15,20:00,0.603,0.904,0.568,1.097,0.778,0.364,0.630,0.593,�k�k��,7.1,��
2021/09/15,20:10,0.605,0.903,0.567,1.097,0.777,0.363,0.630,0.591,�k�k��,5.4,��
2021/09/15,20:20,0.605,0.906,0.567,1.099,0.777,0.363,0.631,0.590,�k�k��,6.3,��
2021/09/15,20:30,0.603,0.905,0.569,1.098,0.779,0.362,0.630,0.591,�k�k��,7.0,��
2021/09/15,20:40,0.603,0.904,0.568,1.097,0.777,0.364,0.630,0.591,�k�k��,6.6,�L
2021/09/15,20:50,0.604,0.906,0.567,1.099,0.777,0.364,0.630,0.592,�k�k��,7.0,�L
2021/09/15,21:00,0.603,0.904,0.565,1.096,0.778,0.364,0.628,0.591,�k�k��,7.1,�L
2021/09/15,21:10,0.604,0.902,0.568,1.094,0.776,0.364,0.630,0.590,�k�k��,8.3,�L
2021/09/15,21:20,0.603,0.900,0.563,1.097,0.776,0.363,0.627,0.591,�k�k��,7.4,��
2021/09/15,21:30,0.603,0.897,0.564,1.095,0.773,0.363,0.630,0.591,�k�k��,7.6,�L
2021/09/15,21:40,0.603,0.898,0.565,1.098,0.773,0.362,0.629,0.591,�k�k��,7.5,��
2021/09/15,21:50,0.603,0.899,0.565,1.098,0.774,0.363,0.630,0.590,�k�k��,8.1,�L
2021/09/15,22:00,0.603,0.900,0.566,1.096,0.774,0.362,0.629,0.591,�k�k��,8.8,�L
2021/09/15,22:10,0.603,0.900,0.566,1.095,0.776,0.362,0.628,0.592,�k�k��,7.0,�L
2021/09/15,22:20,0.603,0.898,0.565,1.096,0.775,0.361,0.629,0.591,�k�k��,8.8,�L
2021/09/15,22:30,0.600,0.892,0.564,1.097,0.773,0.362,0.630,0.592,�k,7.6,�L
2021/09/15,22:40,0.594,0.881,0.557,1.091,0.764,0.361,0.628,0.593,�k�k��,6.7,�L
2021/09/15,22:50,0.595,0.880,0.554,1.091,0.762,0.362,0.627,0.589,�k�k��,5.9,�L
2021/09/15,23:00,0.594,0.881,0.555,1.087,0.763,0.360,0.629,0.591,�k�k��,5.9,�L
2021/09/15,23:10,0.594,0.879,0.554,1.089,0.761,0.362,0.627,0.589,�k�k��,4.6,�L
2021/09/15,23:20,0.594,0.877,0.556,1.088,0.760,0.362,0.627,0.589,�k,4.9,��
2021/09/15,23:30,0.593,0.879,0.557,1.089,0.762,0.363,0.627,0.591,�k�k��,5.6,��
2021/09/15,23:40,0.594,0.879,0.557,1.089,0.759,0.361,0.627,0.588,�k�k��,5.6,��
2021/09/15,23:50,0.596,0.879,0.557,1.092,0.763,0.361,0.628,0.588,�k�k��,4.7,�L
